Weather History for KFYV - April, 2012

Change the Weather History Date:

Friday, April 20, 2012

  Actual Average Record
Temperature  
Mean Temperature 52 °F 58 °F  
Max Temperature 64 °F 70 °F 89 °F (1987)
Min Temperature 39 °F 46 °F 26 °F (1953)
Degree Days  
Heating Degree Days 12 8  
Month to date heating degree days 205  
Since 1 July heating degree days 4034  
Cooling Degree Days 0 1  
Month to date cooling degree days 17  
Year to date cooling degree days 21  
Growing Degree Days 2 (Base 50)    
Moisture  
Dew Point 47 °F    
Average Humidity 83    
Maximum Humidity 100    
Minimum Humidity 63    
Precipitation  
Precipitation 0.03 in 0.16 in 1.06 in (2004)
Month to date precipitation 2.89  
Year to date precipitation 12.49  
Sea Level Pressure  
Sea Level Pressure 29.92 in    
Wind  
Wind Speed 6 mph (NW)    
Max Wind Speed 18 mph    
Max Gust Speed 25 mph    
Visibility 9 miles    
Events Rain    
T = Trace of Precipitation, MM = Missing Value Source: NWS Daily Summary

Daily Weather History Graph

Daily Weather History Graph

Search for Another Location

Airport or City:

Trip Planner

Search our weather history database for the weather conditions in past years. The results will help you decide how hot, cold, wet, or windy it might be!

Date:

Astronomy

Apr. 20, 2012 Rise Set
Actual Time 6:36 AM CDT 7:55 PM CDT
Civil Twilight 6:09 AM CDT 8:21 PM CDT
Nautical Twilight 5:37 AM CDT 8:53 PM CDT
Astronomical Twilight 5:04 AM CDT 9:27 PM CDT
Moon 6:00 AM CDT (4/20) 7:39 PM CDT (4/20)
Length of Visible Light 14h 12m
Length of Day
13h 18m
Waning Crescent, 0% of the Moon is Illuminated
Apr 20
Waning Crescent
Apr 21
New
Apr 29
First Quarter
May 5
Full
May 12
Last Quarter

Hourly Weather History & Observations

Time (CDT) Temp. Dew Point Humidity Pressure Visibility Wind Dir Wind Speed Gust Speed Precip Events Conditions
12:53 AM 57.9 °F 48.9 °F 72% 29.77 in 10.0 mi Calm Calm - N/A   Clear
1:53 AM 62.6 °F 50.0 °F 63% 29.81 in 10.0 mi SW 6.9 mph - N/A   Mostly Cloudy
2:53 AM 63.0 °F 50.0 °F 63% 29.78 in 10.0 mi West 3.5 mph - 0.00 in Rain Light Rain
3:53 AM 59.0 °F 53.6 °F 82% 29.80 in 10.0 mi WSW 8.1 mph - N/A Rain Light Rain
4:30 AM 57.2 °F 55.4 °F 94% 29.84 in 10.0 mi SSW 5.8 mph - 0.00 in   Overcast
4:53 AM 57.9 °F 55.9 °F 93% 29.79 in 10.0 mi SW 5.8 mph - 0.00 in Rain Light Rain
5:24 AM 57.2 °F 55.4 °F 94% 29.82 in 10.0 mi SW 8.1 mph - 0.01 in Rain Light Rain
5:53 AM 57.9 °F 55.9 °F 93% 29.80 in 7.0 mi SSW 4.6 mph - 0.02 in Rain Light Rain
6:53 AM 57.2 °F 55.4 °F 94% 29.83 in 7.0 mi WNW 3.5 mph - N/A Rain Light Rain
7:13 AM 57.2 °F 57.2 °F 100% 29.85 in 6.0 mi Calm Calm - 0.00 in Rain Light Rain
7:53 AM 55.0 °F 53.1 °F 93% 29.85 in 10.0 mi NNW 12.7 mph 19.6 mph 0.00 in   Overcast
8:53 AM 51.1 °F 48.9 °F 92% 29.90 in 6.0 mi NNW 18.4 mph 25.3 mph 0.00 in   Overcast
9:53 AM 48.9 °F 46.0 °F 90% 29.95 in 5.0 mi NNW 11.5 mph 18.4 mph N/A   Overcast
10:53 AM 48.9 °F 46.0 °F 90% 29.97 in 5.0 mi North 9.2 mph - N/A   Overcast
11:13 AM 50.0 °F 46.4 °F 87% 29.98 in 6.0 mi North 10.4 mph - N/A   Overcast
11:53 AM 48.9 °F 45.0 °F 86% 29.98 in 6.0 mi North 9.2 mph - N/A   Overcast
12:53 PM 50.0 °F 44.1 °F 80% 29.97 in 10.0 mi NNW 10.4 mph - 0.01 in   Overcast
1:53 PM 50.0 °F 43.0 °F 77% 29.97 in 10.0 mi NNW 15.0 mph 20.7 mph N/A   Overcast
2:53 PM 50.0 °F 42.1 °F 74% 29.98 in 10.0 mi North 10.4 mph - N/A   Overcast
3:53 PM 51.1 °F 42.1 °F 71% 29.97 in 10.0 mi North 10.4 mph 21.9 mph N/A   Overcast
4:53 PM 51.1 °F 43.0 °F 74% 29.98 in 10.0 mi NNW 10.4 mph - N/A   Overcast
5:53 PM 51.1 °F 42.1 °F 71% 29.98 in 10.0 mi North 9.2 mph - N/A   Overcast
6:53 PM 50.0 °F 42.1 °F 74% 29.98 in 10.0 mi North 11.5 mph - N/A   Overcast
7:53 PM 48.9 °F 39.0 °F 69% 30.00 in 10.0 mi North 11.5 mph 18.4 mph N/A   Scattered Clouds
8:53 PM 46.9 °F 39.0 °F 74% 30.03 in 10.0 mi North 5.8 mph - N/A   Clear
9:53 PM 45.0 °F 39.0 °F 80% 30.05 in 10.0 mi Calm Calm - N/A   Clear
10:53 PM 42.1 °F 39.0 °F 89% 30.04 in 10.0 mi Calm Calm - N/A   Clear
11:53 PM 39.0 °F 37.0 °F 93% 30.05 in 9.0 mi Calm Calm - N/A   Clear